Location: Czu?�w
(50.1404°N, 18.9919°E)
Time: 03:30:30
(UTC+00:00)

MetOp-A - Pass Details

Date: 27 October 2020
Orbit: 819 x 821 km, 98.5° (Epoch: 24 November)

Event Time Altitude Azimuth Distance (km) Brightness Sun altitude
Exits shadow 18:22:01 55° 6° (N) 981 4.5 -28.2°
Drops below altitude 10° 18:26:15 10° 348° (NNW) 2,431 6.9 -28.9°
Sets 18:28:37 0° 347° (NNW) 3,367 7.7 -29.2°
